Time,TemperatureF,DewpointF,PressureIn,WindDirection,WindDirectionDegrees,WindSpeedMPH,WindSpeedGustMPH,Humidity,HourlyPrecipIn,Conditions,Clouds,dailyrainin,SolarRadiationWatts/m^2,SoftwareType,DateUTC
2013-06-28 00:01:00,74.5,67.9,29.58,SSW,212,0.0,0.0,80,0.00,,,0.00,0.00,VWS V14.01,2013-06-28 04:01:00,
2013-06-28 00:02:00,74.4,67.8,29.58,SW,217,0.0,5.0,80,0.00,,,0.00,0.00,VWS V14.01,2013-06-28 04:02:00,
2013-06-28 00:06:00,74.4,67.8,29.58,SW,217,0.0,3.0,80,0.00,,,0.00,0.00,VWS V14.01,2013-06-28 04:06:00,
2013-06-28 00:11:00,74.2,68.0,29.58,SSW,192,0.0,1.0,81,0.00,,,0.00,0.00,VWS V14.01,2013-06-28 04:11:00,
2013-06-28 00:16:00,74.1,67.9,29.58,SSW,202,1.0,2.0,81,0.00,,,0.00,0.00,VWS V14.01,2013-06-28 04:16:00,
2013-06-28 00:21:00,74.0,67.8,29.57,SSW,202,0.0,0.0,81,0.00,,,0.00,0.00,VWS V14.01,2013-06-28 04:21:00,
2013-06-28 00:26:00,73.9,68.1,29.57,SSW,202,0.0,0.0,82,0.00,,,0.00,0.00,VWS V14.01,2013-06-28 04:26:00,
2013-06-28 00:31:00,73.8,68.0,29.57,SSW,202,0.0,0.0,82,0.00,,,0.00,0.00,VWS V14.01,2013-06-28 04:31:00,
2013-06-28 00:36:00,73.7,67.9,29.57,SSW,202,0.0,1.0,82,0.00,,,0.00,0.00,VWS V14.01,2013-06-28 04:36:00,
2013-06-28 00:41:00,73.5,67.7,29.56,SSW,202,1.0,1.0,82,0.00,,,0.00,0.00,VWS V14.01,2013-06-28 04:41:00,
2013-06-28 00:47:00,73.3,67.8,29.56,SSW,202,0.0,0.0,83,0.00,,,0.00,0.00,VWS V14.01,2013-06-28 04:47:00,
2013-06-28 00:52:00,73.1,67.6,29.57,SSW,202,0.0,1.0,83,0.00,,,0.00,0.00,VWS V14.01,2013-06-28 04:52:00,
2013-06-28 00:57:00,73.0,67.5,29.56,SSW,202,0.0,2.0,83,0.00,,,0.00,0.00,VWS V14.01,2013-06-28 04:57:00,
2013-06-28 01:02:00,72.8,67.3,29.57,SSW,202,0.0,0.0,83,0.00,,,0.00,0.00,VWS V14.01,2013-06-28 05:02:00,
2013-06-28 01:07:00,72.6,67.5,29.56,SSW,202,0.0,0.0,84,0.00,,,0.00,0.00,VWS V14.01,2013-06-28 05:07:00,
2013-06-28 01:12:00,72.4,67.3,29.56,SSW,202,0.0,1.0,84,0.00,,,0.00,0.00,VWS V14.01,2013-06-28 05:12:00,
2013-06-28 01:17:00,72.3,67.5,29.56,SSW,202,0.0,0.0,85,0.00,,,0.00,0.00,VWS V14.01,2013-06-28 05:17:00,
2013-06-28 01:22:00,72.1,67.3,29.56,SSW,202,0.0,0.0,85,0.00,,,0.00,0.00,VWS V14.01,2013-06-28 05:22:00,
2013-06-28 01:27:00,72.0,67.2,29.56,SSW,202,0.0,1.0,85,0.00,,,0.00,0.00,VWS V14.01,2013-06-28 05:27:00,
2013-06-28 01:32:00,71.9,67.2,29.55,SSW,202,0.0,1.0,85,0.00,,,0.00,0.00,VWS V14.01,2013-06-28 05:32:00,
2013-06-28 01:38:00,71.8,67.4,29.55,SSW,202,1.0,3.0,86,0.00,,,0.00,0.00,VWS V14.01,2013-06-28 05:38:00,
2013-06-28 01:43:00,71.7,67.3,29.55,SSW,206,0.0,1.0,86,0.00,,,0.00,0.00,VWS V14.01,2013-06-28 05:43:00,
2013-06-28 01:48:00,71.7,67.3,29.55,SSW,206,0.0,1.0,86,0.00,,,0.00,0.00,VWS V14.01,2013-06-28 05:48:00,
2013-06-28 01:53:00,71.7,67.3,29.54,SSW,206,0.0,0.0,86,0.00,,,0.00,0.00,VWS V14.01,2013-06-28 05:53:00,
2013-06-28 01:58:00,71.7,67.3,29.54,SSW,206,0.0,0.0,86,0.00,,,0.00,0.00,VWS V14.01,2013-06-28 05:58:00,
2013-06-28 02:03:00,71.6,67.2,29.54,SSW,206,0.0,0.0,86,0.00,,,0.00,0.00,VWS V14.01,2013-06-28 06:03:00,
2013-06-28 02:08:00,71.5,67.1,29.54,SSW,206,0.0,1.0,86,0.00,,,0.00,0.00,VWS V14.01,2013-06-28 06:08:00,
2013-06-28 02:13:00,71.3,66.9,29.54,SSW,206,0.0,1.0,86,0.00,,,0.00,0.00,VWS V14.01,2013-06-28 06:13:00,
2013-06-28 02:18:00,71.3,66.9,29.54,SSW,206,0.0,2.0,86,0.00,,,0.00,0.00,VWS V14.01,2013-06-28 06:18:00,
2013-06-28 02:23:00,71.1,67.0,29.54,SSW,206,0.0,3.0,87,0.00,,,0.00,0.00,VWS V14.01,2013-06-28 06:23:00,
2013-06-28 02:28:00,71.0,66.9,29.54,SSW,205,0.0,3.0,87,0.00,,,0.00,0.00,VWS V14.01,2013-06-28 06:28:00,
2013-06-28 02:34:00,70.9,66.8,29.54,SSW,205,0.0,1.0,87,0.00,,,0.00,0.00,VWS V14.01,2013-06-28 06:34:00,
2013-06-28 02:39:00,70.8,66.7,29.55,SSW,207,3.0,5.0,87,0.00,,,0.00,0.00,VWS V14.01,2013-06-28 06:39:00,
2013-06-28 02:44:00,70.7,67.0,29.54,SSW,212,0.0,4.0,88,0.00,,,0.00,0.00,VWS V14.01,2013-06-28 06:44:00,
2013-06-28 02:49:00,70.6,66.9,29.54,SSW,211,0.0,1.0,88,0.00,,,0.00,0.00,VWS V14.01,2013-06-28 06:49:00,
2013-06-28 02:54:00,70.4,66.7,29.54,SSW,211,0.0,1.0,88,0.00,,,0.00,0.00,VWS V14.01,2013-06-28 06:54:00,
2013-06-28 02:59:00,70.3,66.6,29.54,SSW,211,0.0,1.0,88,0.00,,,0.00,0.00,VWS V14.01,2013-06-28 06:59:00,
2013-06-28 03:04:00,70.2,66.5,29.54,SSW,212,0.0,0.0,88,0.00,,,0.00,0.00,VWS V14.01,2013-06-28 07:04:00,
2013-06-28 03:09:00,70.1,66.4,29.54,SSW,212,0.0,1.0,88,0.00,,,0.00,0.00,VWS V14.01,2013-06-28 07:09:00,
2013-06-28 03:14:00,70.0,66.6,29.54,SSW,212,0.0,0.0,89,0.00,,,0.00,0.00,VWS V14.01,2013-06-28 07:14:00,
2013-06-28 03:19:00,69.9,66.5,29.54,SSW,211,0.0,1.0,89,0.00,,,0.00,0.00,VWS V14.01,2013-06-28 07:19:00,
2013-06-28 03:24:00,69.7,66.3,29.54,SSW,211,0.0,2.0,89,0.00,,,0.00,0.00,VWS V14.01,2013-06-28 07:24:00,
2013-06-28 03:30:00,69.6,66.2,29.54,SSW,211,0.0,0.0,89,0.00,,,0.00,0.00,VWS V14.01,2013-06-28 07:30:00,
2013-06-28 03:35:00,69.5,66.4,29.54,SSW,211,0.0,0.0,90,0.00,,,0.00,0.00,VWS V14.01,2013-06-28 07:35:00,
2013-06-28 03:40:00,69.4,66.3,29.53,SSW,211,0.0,0.0,90,0.00,,,0.00,0.00,VWS V14.01,2013-06-28 07:40:00,
2013-06-28 03:45:00,69.3,66.2,29.54,SSW,211,0.0,1.0,90,0.00,,,0.00,0.00,VWS V14.01,2013-06-28 07:45:00,
2013-06-28 03:50:00,69.2,66.2,29.53,SSW,211,0.0,0.0,90,0.00,,,0.00,0.00,VWS V14.01,2013-06-28 07:50:00,
2013-06-28 03:55:00,69.1,66.4,29.53,SSW,211,0.0,0.0,91,0.00,,,0.00,0.00,VWS V14.01,2013-06-28 07:55:00,
2013-06-28 04:00:00,69.0,66.3,29.54,SSW,211,0.0,0.0,91,0.00,,,0.00,0.00,VWS V14.01,2013-06-28 08:00:00,
2013-06-28 04:05:00,68.9,66.2,29.54,SSW,211,0.0,1.0,91,0.00,,,0.00,0.00,VWS V14.01,2013-06-28 08:05:00,
2013-06-28 04:10:00,68.8,66.1,29.54,SSW,211,0.0,1.0,91,0.00,,,0.00,0.00,VWS V14.01,2013-06-28 08:10:00,
2013-06-28 04:15:00,68.8,66.4,29.54,SSW,211,0.0,0.0,92,0.00,,,0.00,0.00,VWS V14.01,2013-06-28 08:15:00,
2013-06-28 04:20:00,68.6,66.2,29.53,SSW,211,0.0,0.0,92,0.00,,,0.00,0.00,VWS V14.01,2013-06-28 08:20:00,
2013-06-28 04:25:00,68.6,66.2,29.53,SSW,211,0.0,0.0,92,0.00,,,0.00,0.00,VWS V14.01,2013-06-28 08:25:00,
2013-06-28 04:30:00,68.5,66.1,29.54,SSW,211,0.0,0.0,92,0.00,,,0.00,0.00,VWS V14.01,2013-06-28 08:30:00,
2013-06-28 04:36:00,68.4,66.0,29.54,SSW,211,0.0,0.0,92,0.00,,,0.00,0.00,VWS V14.01,2013-06-28 08:36:00,
2013-06-28 04:41:00,68.3,65.9,29.54,SSW,211,0.0,0.0,92,0.00,,,0.00,0.00,VWS V14.01,2013-06-28 08:41:00,
2013-06-28 04:46:00,68.3,65.9,29.54,SSW,211,0.0,0.0,92,0.00,,,0.00,0.00,VWS V14.01,2013-06-28 08:46:00,
2013-06-28 04:51:00,68.1,65.7,29.54,SSW,211,0.0,0.0,92,0.00,,,0.00,0.00,VWS V14.01,2013-06-28 08:51:00,
2013-06-28 04:56:00,68.1,66.0,29.54,SSW,211,0.0,0.0,93,0.00,,,0.00,0.00,VWS V14.01,2013-06-28 08:56:00,
2013-06-28 05:01:00,68.0,65.9,29.55,SSW,211,0.0,0.0,93,0.00,,,0.00,0.00,VWS V14.01,2013-06-28 09:01:00,
2013-06-28 05:06:00,67.9,65.8,29.55,SSW,211,0.0,0.0,93,0.00,,,0.00,0.00,VWS V14.01,2013-06-28 09:06:00,
2013-06-28 05:11:00,68.0,65.9,29.55,South,190,0.0,2.0,93,0.00,,,0.00,0.00,VWS V14.01,2013-06-28 09:11:00,
2013-06-28 05:16:00,68.0,66.2,29.55,South,190,0.0,0.0,94,0.00,,,0.00,0.00,VWS V14.01,2013-06-28 09:16:00,
2013-06-28 05:21:00,68.0,66.5,29.55,South,190,0.0,0.0,95,0.00,,,0.00,0.00,VWS V14.01,2013-06-28 09:21:00,
2013-06-28 05:26:00,68.0,66.2,29.56,South,190,0.0,0.0,94,0.00,,,0.00,0.00,VWS V14.01,2013-06-28 09:26:00,
2013-06-28 05:31:00,68.1,66.3,29.56,South,191,0.0,0.0,94,0.00,,,0.00,0.00,VWS V14.01,2013-06-28 09:31:00,
2013-06-28 05:37:00,68.1,66.6,29.56,SSW,192,0.0,0.0,95,0.00,,,0.00,0.00,VWS V14.01,2013-06-28 09:37:00,
2013-06-28 05:42:00,68.1,66.6,29.56,SSW,192,0.0,0.0,95,0.00,,,0.00,0.00,VWS V14.01,2013-06-28 09:42:00,
2013-06-28 05:47:00,68.1,66.6,29.56,South,191,0.0,0.0,95,0.00,,,0.00,0.00,VWS V14.01,2013-06-28 09:47:00,
2013-06-28 05:52:00,68.2,66.7,29.56,SSW,192,0.0,1.0,95,0.00,,,0.00,5.00,VWS V14.01,2013-06-28 09:52:00,
2013-06-28 05:57:00,68.2,66.7,29.56,SSW,192,0.0,0.0,95,0.00,,,0.00,7.00,VWS V14.01,2013-06-28 09:57:00,
2013-06-28 06:02:00,68.2,66.7,29.56,SSW,192,0.0,0.0,95,0.00,,,0.00,11.00,VWS V14.01,2013-06-28 10:02:00,
2013-06-28 06:07:00,68.1,66.6,29.56,SSW,192,0.0,0.0,95,0.00,,,0.00,9.00,VWS V14.01,2013-06-28 10:07:00,
2013-06-28 06:12:00,68.1,66.6,29.56,SSW,192,0.0,0.0,95,0.00,,,0.00,11.00,VWS V14.01,2013-06-28 10:12:00,
2013-06-28 06:17:00,68.1,66.6,29.55,SSW,192,0.0,0.0,95,0.00,,,0.00,14.00,VWS V14.01,2013-06-28 10:17:00,
2013-06-28 06:23:00,68.0,66.5,29.56,SSW,192,0.0,0.0,95,0.00,,,0.00,19.00,VWS V14.01,2013-06-28 10:23:00,
2013-06-28 06:28:00,68.0,66.5,29.55,SSW,192,0.0,0.0,95,0.00,,,0.00,28.00,VWS V14.01,2013-06-28 10:28:00,
2013-06-28 06:33:00,68.0,66.5,29.55,SSW,192,0.0,0.0,95,0.00,,,0.00,37.00,VWS V14.01,2013-06-28 10:33:00,
2013-06-28 06:38:00,68.0,66.5,29.55,SSW,192,0.0,0.0,95,0.00,,,0.00,40.00,VWS V14.01,2013-06-28 10:38:00,
2013-06-28 06:43:00,68.0,66.5,29.55,SSW,192,0.0,0.0,95,0.00,,,0.00,39.00,VWS V14.01,2013-06-28 10:43:00,
2013-06-28 06:48:00,68.0,66.5,29.55,SSW,192,0.0,0.0,95,0.00,,,0.00,33.00,VWS V14.01,2013-06-28 10:48:00,
2013-06-28 06:53:00,68.1,66.6,29.55,SSW,192,0.0,0.0,95,0.00,,,0.00,28.00,VWS V14.01,2013-06-28 10:53:00,
2013-06-28 06:58:00,68.1,66.6,29.55,SSW,192,0.0,0.0,95,0.00,,,0.00,23.00,VWS V14.01,2013-06-28 10:58:00,
2013-06-28 07:03:00,68.2,66.7,29.55,SSW,192,0.0,0.0,95,0.00,,,0.00,26.00,VWS V14.01,2013-06-28 11:03:00,
2013-06-28 07:09:00,68.2,66.7,29.55,SSW,192,0.0,0.0,95,0.00,,,0.00,42.00,VWS V14.01,2013-06-28 11:09:00,
2013-06-28 07:14:00,68.3,66.8,29.54,SSW,192,0.0,1.0,95,0.00,,,0.00,58.00,VWS V14.01,2013-06-28 11:14:00,
2013-06-28 07:19:00,68.4,67.2,29.54,SSW,192,0.0,0.0,96,0.00,,,0.00,67.00,VWS V14.01,2013-06-28 11:19:00,
2013-06-28 07:24:00,68.5,67.3,29.55,SSW,192,0.0,1.0,96,0.00,,,0.00,81.00,VWS V14.01,2013-06-28 11:24:00,
2013-06-28 07:29:00,68.8,67.6,29.54,SSW,192,0.0,3.0,96,0.00,,,0.00,123.00,VWS V14.01,2013-06-28 11:29:00,
2013-06-28 07:34:00,69.1,67.9,29.54,SSW,193,0.0,1.0,96,0.00,,,0.00,200.00,VWS V14.01,2013-06-28 11:34:00,
2013-06-28 07:39:00,69.5,68.3,29.54,SSW,193,0.0,1.0,96,0.00,,,0.00,221.00,VWS V14.01,2013-06-28 11:39:00,
2013-06-28 07:44:00,69.8,68.6,29.54,SSW,192,0.0,1.0,96,0.00,,,0.00,232.00,VWS V14.01,2013-06-28 11:44:00,
2013-06-28 07:50:00,70.1,68.9,29.54,SSW,193,0.0,1.0,96,0.00,,,0.00,246.00,VWS V14.01,2013-06-28 11:50:00,
2013-06-28 07:55:00,70.4,68.9,29.54,SSW,193,0.0,1.0,95,0.00,,,0.00,260.00,VWS V14.01,2013-06-28 11:55:00,
2013-06-28 08:00:00,70.8,69.0,29.54,SSW,205,0.0,3.0,94,0.00,,,0.00,290.00,VWS V14.01,2013-06-28 12:00:00,
2013-06-28 08:05:00,71.3,69.2,29.54,SSW,205,0.0,1.0,93,0.00,,,0.00,297.00,VWS V14.01,2013-06-28 12:05:00,
2013-06-28 08:10:00,71.9,69.4,29.54,SSW,196,0.0,3.0,92,0.00,,,0.00,308.00,VWS V14.01,2013-06-28 12:10:00,
2013-06-28 08:15:00,72.7,69.9,29.54,SSW,197,0.0,4.0,91,0.00,,,0.00,315.00,VWS V14.01,2013-06-28 12:15:00,
2013-06-28 08:20:00,73.6,70.2,29.54,SSW,196,0.0,1.0,89,0.00,,,0.00,318.00,VWS V14.01,2013-06-28 12:20:00,
2013-06-28 08:25:00,74.4,70.3,29.54,SSW,197,0.0,1.0,87,0.00,,,0.00,338.00,VWS V14.01,2013-06-28 12:25:00,
2013-06-28 08:30:00,75.1,70.3,29.54,SSW,196,0.0,2.0,85,0.00,,,0.00,446.00,VWS V14.01,2013-06-28 12:30:00,
2013-06-28 08:35:00,75.8,70.6,29.55,SSW,207,1.0,3.0,84,0.00,,,0.00,220.00,VWS V14.01,2013-06-28 12:35:00,
2013-06-28 08:40:00,76.1,70.6,29.55,SSW,195,0.0,4.0,83,0.00,,,0.00,213.00,VWS V14.01,2013-06-28 12:40:00,
2013-06-28 08:45:00,76.0,70.5,29.55,SSW,195,0.0,2.0,83,0.00,,,0.00,364.00,VWS V14.01,2013-06-28 12:45:00,
2013-06-28 08:50:00,76.3,70.8,29.55,SSW,194,0.0,1.0,83,0.00,,,0.00,211.00,VWS V14.01,2013-06-28 12:50:00,
2013-06-28 08:55:00,76.6,71.1,29.55,SSW,200,0.0,2.0,83,0.00,,,0.00,299.00,VWS V14.01,2013-06-28 12:55:00,
2013-06-28 09:00:00,77.1,71.2,29.54,SSW,213,0.0,1.0,82,0.00,,,0.00,281.00,VWS V14.01,2013-06-28 13:00:00,
2013-06-28 09:05:00,77.7,71.8,29.54,WSW,248,0.0,1.0,82,0.00,,,0.00,316.00,VWS V14.01,2013-06-28 13:05:00,
2013-06-28 09:10:00,78.2,71.5,29.54,SSW,207,0.0,2.0,80,0.00,,,0.00,360.00,VWS V14.01,2013-06-28 13:10:00,
2013-06-28 09:15:00,78.4,71.3,29.54,SSW,195,1.0,4.0,79,0.00,,,0.00,360.00,VWS V14.01,2013-06-28 13:15:00,
2013-06-28 09:20:00,78.5,70.3,29.53,NW,311,1.0,2.0,76,0.00,,,0.00,432.00,VWS V14.01,2013-06-28 13:20:00,
2013-06-28 09:25:00,79.0,71.6,29.54,NW,311,0.0,0.0,78,0.00,,,0.00,512.00,VWS V14.01,2013-06-28 13:25:00,
2013-06-28 09:31:00,79.3,71.5,29.54,South,186,0.0,0.0,77,0.00,,,0.00,299.00,VWS V14.01,2013-06-28 13:31:00,
2013-06-28 09:36:00,79.2,71.4,29.54,SSW,198,5.0,7.0,77,0.00,,,0.00,605.00,VWS V14.01,2013-06-28 13:36:00,
2013-06-28 09:41:00,79.1,71.7,29.53,South,186,0.0,1.0,78,0.00,,,0.00,406.00,VWS V14.01,2013-06-28 13:41:00,
2013-06-28 09:46:00,78.9,71.1,29.53,SSW,204,0.0,1.0,77,0.00,,,0.00,359.00,VWS V14.01,2013-06-28 13:46:00,
2013-06-28 09:51:00,79.3,71.5,29.53,WSW,248,0.0,1.0,77,0.00,,,0.00,591.00,VWS V14.01,2013-06-28 13:51:00,
2013-06-28 09:56:00,80.1,71.9,29.53,North,5,2.0,3.0,76,0.00,,,0.00,357.00,VWS V14.01,2013-06-28 13:56:00,
2013-06-28 10:01:00,80.2,71.2,29.53,NNW,346,0.0,4.0,74,0.00,,,0.00,237.00,VWS V14.01,2013-06-28 14:01:00,
2013-06-28 10:06:00,79.9,71.3,29.53,NNW,346,0.0,1.0,75,0.00,,,0.00,162.00,VWS V14.01,2013-06-28 14:06:00,
2013-06-28 10:12:00,79.6,71.8,29.53,NNW,344,0.0,1.0,77,0.00,,,0.00,227.00,VWS V14.01,2013-06-28 14:12:00,
2013-06-28 10:17:00,79.5,71.7,29.53,NW,311,1.0,1.0,77,0.00,,,0.00,329.00,VWS V14.01,2013-06-28 14:17:00,
2013-06-28 10:22:00,79.6,71.4,29.54,NNW,331,0.0,4.0,76,0.00,,,0.00,299.00,VWS V14.01,2013-06-28 14:22:00,
2013-06-28 10:27:00,79.7,71.5,29.53,North,360,4.0,8.0,76,0.00,,,0.00,571.00,VWS V14.01,2013-06-28 14:27:00,
2013-06-28 10:32:00,80.1,71.1,29.52,NW,319,0.0,4.0,74,0.00,,,0.00,459.00,VWS V14.01,2013-06-28 14:32:00,
2013-06-28 10:37:00,80.9,72.2,29.53,NW,319,0.0,1.0,75,0.00,,,0.00,531.00,VWS V14.01,2013-06-28 14:37:00,
2013-06-28 10:42:00,81.2,72.5,29.52,NW,312,0.0,0.0,75,0.00,,,0.00,410.00,VWS V14.01,2013-06-28 14:42:00,
2013-06-28 10:47:00,81.3,72.2,29.52,SW,216,0.0,4.0,74,0.00,,,0.00,404.00,VWS V14.01,2013-06-28 14:47:00,
2013-06-28 10:52:00,81.2,72.1,29.51,NW,305,0.0,0.0,74,0.00,,,0.00,373.00,VWS V14.01,2013-06-28 14:52:00,
2013-06-28 10:57:00,80.9,71.0,29.52,NW,305,0.0,1.0,72,0.00,,,0.00,385.00,VWS V14.01,2013-06-28 14:57:00,
2013-06-28 11:03:00,80.9,71.8,29.51,NW,306,0.0,1.0,74,0.00,,,0.00,383.00,VWS V14.01,2013-06-28 15:03:00,
2013-06-28 11:08:00,81.0,71.5,29.52,NNW,327,1.0,4.0,73,0.00,,,0.00,244.00,VWS V14.01,2013-06-28 15:08:00,
2013-06-28 11:13:00,80.7,71.7,29.52,NW,323,0.0,1.0,74,0.00,,,0.00,308.00,VWS V14.01,2013-06-28 15:13:00,
2013-06-28 11:18:00,80.5,71.8,29.52,WNW,292,0.0,2.0,75,0.00,,,0.00,258.00,VWS V14.01,2013-06-28 15:18:00,
2013-06-28 11:23:00,80.6,71.9,29.52,SSW,203,0.0,1.0,75,0.00,,,0.00,777.00,VWS V14.01,2013-06-28 15:23:00,
2013-06-28 11:28:00,81.6,72.5,29.52,SSW,208,0.0,4.0,74,0.00,,,0.00,768.00,VWS V14.01,2013-06-28 15:28:00,
2013-06-28 11:33:00,81.7,73.0,29.52,SSW,192,7.0,8.0,75,0.00,,,0.00,812.00,VWS V14.01,2013-06-28 15:33:00,
2013-06-28 11:38:00,81.9,72.8,29.52,WSW,252,1.0,5.0,74,0.00,,,0.00,882.00,VWS V14.01,2013-06-28 15:38:00,
2013-06-28 11:43:00,81.9,72.4,29.51,South,182,1.0,4.0,73,0.00,,,0.00,332.00,VWS V14.01,2013-06-28 15:43:00,
2013-06-28 11:48:00,81.7,72.6,29.51,SSW,193,5.0,7.0,74,0.00,,,0.00,325.00,VWS V14.01,2013-06-28 15:48:00,
2013-06-28 11:53:00,81.4,72.3,29.51,WSW,240,0.0,3.0,74,0.00,,,0.00,438.00,VWS V14.01,2013-06-28 15:53:00,
2013-06-28 11:59:00,81.9,72.4,29.51,WNW,288,0.0,11.0,73,0.00,,,0.00,285.00,VWS V14.01,2013-06-28 15:59:00,
2013-06-28 12:04:00,82.8,73.7,29.51,WSW,257,2.0,6.0,74,0.00,,,0.00,909.00,VWS V14.01,2013-06-28 16:04:00,
2013-06-28 12:09:00,83.6,73.6,29.51,SSW,198,0.0,7.0,72,0.00,,,0.00,951.00,VWS V14.01,2013-06-28 16:09:00,
2013-06-28 12:14:00,83.6,72.8,29.51,SW,223,5.0,7.0,70,0.00,,,0.00,287.00,VWS V14.01,2013-06-28 16:14:00,
2013-06-28 12:19:00,83.2,72.4,29.51,WSW,246,4.0,7.0,70,0.00,,,0.00,1021.00,VWS V14.01,2013-06-28 16:19:00,
2013-06-28 12:24:00,83.5,72.7,29.51,SSW,194,6.0,10.0,70,0.00,,,0.00,942.00,VWS V14.01,2013-06-28 16:24:00,
2013-06-28 12:29:00,83.6,72.8,29.50,SSW,192,3.0,10.0,70,0.00,,,0.00,1014.00,VWS V14.01,2013-06-28 16:29:00,
2013-06-28 12:35:00,83.8,73.4,29.50,SSW,198,7.0,12.0,71,0.00,,,0.00,1041.00,VWS V14.01,2013-06-28 16:35:00,
2013-06-28 12:40:00,84.2,72.9,29.51,SW,226,1.0,7.0,69,0.00,,,0.00,960.00,VWS V14.01,2013-06-28 16:40:00,
2013-06-28 12:45:00,84.1,72.0,29.50,SW,224,0.0,6.0,67,0.00,,,0.00,174.00,VWS V14.01,2013-06-28 16:45:00,
2013-06-28 12:50:00,84.2,72.5,29.50,SSW,202,3.0,4.0,68,0.00,,,0.00,947.00,VWS V14.01,2013-06-28 16:50:00,
2013-06-28 12:55:00,84.5,73.2,29.50,West,259,3.0,13.0,69,0.00,,,0.00,1000.00,VWS V14.01,2013-06-28 16:55:00,
2013-06-28 13:00:00,85.0,71.9,29.50,SW,218,0.0,5.0,65,0.00,,,0.00,1009.00,VWS V14.01,2013-06-28 17:00:00,
2013-06-28 13:05:00,85.4,71.8,29.50,SSW,211,1.0,8.0,64,0.00,,,0.00,294.00,VWS V14.01,2013-06-28 17:05:00,
2013-06-28 13:10:00,84.7,72.1,29.49,WSW,238,3.0,7.0,66,0.00,,,0.00,770.00,VWS V14.01,2013-06-28 17:10:00,
2013-06-28 13:15:00,84.8,71.3,29.50,SSW,211,4.0,8.0,64,0.00,,,0.00,1071.00,VWS V14.01,2013-06-28 17:15:00,
2013-06-28 13:20:00,85.5,74.2,29.49,South,175,2.0,7.0,69,0.00,,,0.00,1069.00,VWS V14.01,2013-06-28 17:20:00,
2013-06-28 13:25:00,85.6,72.0,29.49,SW,227,2.0,10.0,64,0.00,,,0.00,807.00,VWS V14.01,2013-06-28 17:25:00,
2013-06-28 13:30:00,85.5,71.5,29.49,West,276,5.0,8.0,63,0.00,,,0.00,944.00,VWS V14.01,2013-06-28 17:30:00,
2013-06-28 13:35:00,85.6,71.6,29.49,NW,323,3.0,11.0,63,0.00,,,0.00,360.00,VWS V14.01,2013-06-28 17:35:00,
2013-06-28 13:40:00,85.2,71.7,29.49,SSW,211,7.0,10.0,64,0.00,,,0.00,316.00,VWS V14.01,2013-06-28 17:40:00,
2013-06-28 13:45:00,84.4,70.9,29.48,SSW,206,0.0,10.0,64,0.00,,,0.00,424.00,VWS V14.01,2013-06-28 17:45:00,
2013-06-28 13:50:00,84.3,72.2,29.48,South,177,2.0,8.0,67,0.00,,,0.00,1153.00,VWS V14.01,2013-06-28 17:50:00,
2013-06-28 13:55:00,85.1,72.5,29.47,SW,232,4.0,6.0,66,0.00,,,0.00,947.00,VWS V14.01,2013-06-28 17:55:00,
2013-06-28 14:00:00,85.4,72.3,29.47,WSW,237,0.0,7.0,65,0.00,,,0.00,450.00,VWS V14.01,2013-06-28 18:00:00,
2013-06-28 14:05:00,85.1,72.0,29.47,West,269,0.0,7.0,65,0.00,,,0.00,944.00,VWS V14.01,2013-06-28 18:05:00,
2013-06-28 14:11:00,85.7,72.6,29.46,SW,226,7.0,12.0,65,0.00,,,0.00,847.00,VWS V14.01,2013-06-28 18:11:00,
2013-06-28 14:16:00,85.9,72.3,29.47,SW,221,5.0,7.0,64,0.00,,,0.00,881.00,VWS V14.01,2013-06-28 18:16:00,
2013-06-28 14:21:00,86.3,71.8,29.46,SW,214,5.0,6.0,62,0.00,,,0.00,904.00,VWS V14.01,2013-06-28 18:21:00,
2013-06-28 14:26:00,86.6,73.0,29.46,WSW,250,5.0,6.0,64,0.00,,,0.00,937.00,VWS V14.01,2013-06-28 18:26:00,
2013-06-28 14:31:00,86.6,72.5,29.47,SSW,196,2.0,3.0,63,0.00,,,0.00,983.00,VWS V14.01,2013-06-28 18:31:00,
2013-06-28 14:36:00,86.7,73.1,29.46,WSW,246,4.0,5.0,64,0.00,,,0.00,1005.00,VWS V14.01,2013-06-28 18:36:00,
2013-06-28 14:41:00,87.1,72.0,29.46,NW,306,1.0,5.0,61,0.00,,,0.00,877.00,VWS V14.01,2013-06-28 18:41:00,
2013-06-28 14:46:00,87.1,72.5,29.44,South,185,2.0,3.0,62,0.00,,,0.00,902.00,VWS V14.01,2013-06-28 18:46:00,
2013-06-28 14:51:00,87.2,71.6,29.44,SSW,202,0.0,7.0,60,0.00,,,0.00,914.00,VWS V14.01,2013-06-28 18:51:00,
2013-06-28 14:57:00,87.2,71.6,29.44,SW,225,3.0,8.0,60,0.00,,,0.00,888.00,VWS V14.01,2013-06-28 18:57:00,
2013-06-28 15:02:00,87.2,71.6,29.44,SSW,204,4.0,6.0,60,0.00,,,0.00,939.00,VWS V14.01,2013-06-28 19:02:00,
2013-06-28 15:07:00,87.1,71.5,29.44,NW,304,2.0,7.0,60,0.00,,,0.00,909.00,VWS V14.01,2013-06-28 19:07:00,
2013-06-28 15:12:00,87.2,70.6,29.45,SSW,213,2.0,9.0,58,0.00,,,0.00,912.00,VWS V14.01,2013-06-28 19:12:00,
2013-06-28 15:17:00,87.6,73.0,29.45,SSW,192,0.0,2.0,62,0.00,,,0.00,953.00,VWS V14.01,2013-06-28 19:17:00,
2013-06-28 15:22:00,87.2,72.1,29.44,West,281,1.0,6.0,61,0.00,,,0.00,313.00,VWS V14.01,2013-06-28 19:22:00,
2013-06-28 15:27:00,86.8,72.2,29.44,WNW,295,0.0,6.0,62,0.00,,,0.00,1041.00,VWS V14.01,2013-06-28 19:27:00,
2013-06-28 15:32:00,87.5,71.9,29.44,West,279,0.0,8.0,60,0.00,,,0.00,939.00,VWS V14.01,2013-06-28 19:32:00,
2013-06-28 15:37:00,87.9,72.8,29.43,West,273,3.0,4.0,61,0.00,,,0.00,909.00,VWS V14.01,2013-06-28 19:37:00,
2013-06-28 15:43:00,87.9,72.3,29.43,SW,221,1.0,6.0,60,0.00,,,0.00,886.00,VWS V14.01,2013-06-28 19:43:00,
2013-06-28 15:48:00,87.7,72.1,29.43,South,183,8.0,10.0,60,0.00,,,0.00,253.00,VWS V14.01,2013-06-28 19:48:00,
2013-06-28 15:53:00,86.4,71.4,29.43,SSW,207,8.0,18.0,61,0.00,,,0.00,287.00,VWS V14.01,2013-06-28 19:53:00,
2013-06-28 15:58:00,84.9,71.8,29.44,South,182,2.0,8.0,65,0.00,,,0.00,661.00,VWS V14.01,2013-06-28 19:58:00,
2013-06-28 16:03:00,84.0,71.0,29.44,SSW,203,4.0,6.0,65,0.00,,,0.00,589.00,VWS V14.01,2013-06-28 20:03:00,
2013-06-28 16:08:00,83.4,70.9,29.44,SW,217,5.0,8.0,66,0.00,,,0.00,515.00,VWS V14.01,2013-06-28 20:08:00,
2013-06-28 16:13:00,83.1,71.4,29.44,SSE,168,4.0,8.0,68,0.00,,,0.00,589.00,VWS V14.01,2013-06-28 20:13:00,
2013-06-28 16:18:00,82.9,72.1,29.45,WSW,254,0.0,6.0,70,0.00,,,0.00,578.00,VWS V14.01,2013-06-28 20:18:00,
2013-06-28 16:24:00,82.9,72.5,29.45,SSW,212,0.0,7.0,71,0.00,,,0.00,378.00,VWS V14.01,2013-06-28 20:24:00,
2013-06-28 16:29:00,82.5,72.2,29.45,WSW,255,0.0,7.0,71,0.00,,,0.00,220.00,VWS V14.01,2013-06-28 20:29:00,
2013-06-28 16:34:00,81.9,72.4,29.45,SSW,199,4.0,7.0,73,0.00,,,0.00,246.00,VWS V14.01,2013-06-28 20:34:00,
2013-06-28 16:39:00,81.6,72.5,29.45,SSW,211,0.0,4.0,74,0.00,,,0.00,288.00,VWS V14.01,2013-06-28 20:39:00,
2013-06-28 16:44:00,81.3,72.6,29.46,SSW,211,0.0,7.0,75,0.00,,,0.00,271.00,VWS V14.01,2013-06-28 20:44:00,
2013-06-28 16:49:00,81.0,72.7,29.45,SSW,202,0.0,5.0,76,0.00,,,0.00,248.00,VWS V14.01,2013-06-28 20:49:00,
2013-06-28 16:54:00,80.7,72.4,29.45,SSW,202,0.0,1.0,76,0.00,,,0.00,181.00,VWS V14.01,2013-06-28 20:54:00,
2013-06-28 16:59:00,80.3,69.6,29.47,NW,322,6.0,29.0,70,0.00,,,0.00,125.00,VWS V14.01,2013-06-28 20:59:00,
2013-06-28 17:04:00,79.3,68.3,29.46,NW,325,12.0,17.0,69,0.00,,,0.00,179.00,VWS V14.01,2013-06-28 21:04:00,
2013-06-28 17:10:00,78.3,68.1,29.47,NNW,345,12.0,17.0,71,0.00,,,0.00,227.00,VWS V14.01,2013-06-28 21:10:00,
2013-06-28 17:15:00,77.4,67.3,29.48,NW,316,9.0,15.0,71,0.00,,,0.00,244.00,VWS V14.01,2013-06-28 21:15:00,
2013-06-28 17:20:00,76.7,66.6,29.48,WNW,292,2.0,11.0,71,0.00,,,0.00,172.00,VWS V14.01,2013-06-28 21:20:00,
2013-06-28 17:25:00,76.3,66.6,29.47,NW,317,5.0,11.0,72,0.00,,,0.00,232.00,VWS V14.01,2013-06-28 21:25:00,
2013-06-28 17:30:00,76.2,66.9,29.46,NW,325,4.0,10.0,73,0.00,,,0.00,299.00,VWS V14.01,2013-06-28 21:30:00,
2013-06-28 17:35:00,76.6,67.3,29.46,NNW,331,6.0,10.0,73,0.00,,,0.00,680.00,VWS V14.01,2013-06-28 21:35:00,
2013-06-28 17:40:00,76.8,66.3,29.45,NW,325,4.0,11.0,70,0.00,,,0.00,241.00,VWS V14.01,2013-06-28 21:40:00,
2013-06-28 17:45:00,76.8,66.3,29.45,NW,326,1.0,7.0,70,0.00,,,0.00,214.00,VWS V14.01,2013-06-28 21:45:00,
2013-06-28 17:50:00,76.8,65.9,29.45,NW,319,2.0,6.0,69,0.00,,,0.00,179.00,VWS V14.01,2013-06-28 21:50:00,
2013-06-28 17:55:00,76.7,64.9,29.45,NW,315,4.0,10.0,67,0.00,,,0.00,162.00,VWS V14.01,2013-06-28 21:55:00,
2013-06-28 18:00:00,76.5,64.7,29.45,SW,230,0.0,8.0,67,0.00,,,0.00,197.00,VWS V14.01,2013-06-28 22:00:00,
2013-06-28 18:05:00,76.5,65.2,29.45,WNW,288,0.0,4.0,68,0.00,,,0.00,200.00,VWS V14.01,2013-06-28 22:05:00,
2013-06-28 18:10:00,76.7,64.5,29.45,WNW,284,0.0,3.0,66,0.00,,,0.00,199.00,VWS V14.01,2013-06-28 22:10:00,
2013-06-28 18:15:00,76.7,64.1,29.45,WNW,283,0.0,4.0,65,0.00,,,0.00,107.00,VWS V14.01,2013-06-28 22:15:00,
2013-06-28 18:20:00,76.6,65.3,29.45,WNW,283,0.0,0.0,68,0.00,,,0.00,98.00,VWS V14.01,2013-06-28 22:20:00,
2013-06-28 18:25:00,76.5,64.7,29.45,WNW,283,0.0,1.0,67,0.00,,,0.00,88.00,VWS V14.01,2013-06-28 22:25:00,
2013-06-28 18:30:00,76.4,64.6,29.46,WNW,283,0.0,1.0,67,0.00,,,0.00,91.00,VWS V14.01,2013-06-28 22:30:00,
2013-06-28 18:35:00,76.4,64.6,29.46,WNW,283,0.0,0.0,67,0.00,,,0.00,62.00,VWS V14.01,2013-06-28 22:35:00,
2013-06-28 18:40:00,76.4,65.5,29.46,WNW,283,0.0,1.0,69,0.00,,,0.00,98.00,VWS V14.01,2013-06-28 22:40:00,
2013-06-28 18:45:00,76.4,65.5,29.46,WNW,283,0.0,2.0,69,0.00,,,0.00,130.00,VWS V14.01,2013-06-28 22:45:00,
2013-06-28 18:50:00,76.4,65.5,29.46,WNW,283,1.0,1.0,69,0.00,,,0.00,81.00,VWS V14.01,2013-06-28 22:50:00,
2013-06-28 18:55:00,76.4,65.5,29.46,WNW,283,0.0,0.0,69,0.00,,,0.00,69.00,VWS V14.01,2013-06-28 22:55:00,
2013-06-28 19:00:00,76.3,65.4,29.46,WNW,283,0.0,0.0,69,0.00,,,0.00,58.00,VWS V14.01,2013-06-28 23:00:00,
2013-06-28 19:06:00,76.3,65.8,29.47,WNW,283,0.0,0.0,70,0.00,,,0.00,72.00,VWS V14.01,2013-06-28 23:06:00,
2013-06-28 19:11:00,76.2,65.3,29.47,WNW,283,1.0,1.0,69,0.00,,,0.00,69.00,VWS V14.01,2013-06-28 23:11:00,
2013-06-28 19:16:00,76.1,65.6,29.47,WNW,283,0.0,0.0,70,0.00,,,0.00,49.00,VWS V14.01,2013-06-28 23:16:00,
2013-06-28 19:21:00,76.1,66.4,29.48,WNW,283,0.0,0.0,72,0.00,,,0.00,49.00,VWS V14.01,2013-06-28 23:21:00,
2013-06-28 19:26:00,76.0,66.3,29.48,WNW,283,0.0,0.0,72,0.00,,,0.00,46.00,VWS V14.01,2013-06-28 23:26:00,
2013-06-28 19:31:00,75.8,66.1,29.49,WNW,283,0.0,1.0,72,0.00,,,0.00,54.00,VWS V14.01,2013-06-28 23:31:00,
2013-06-28 19:36:00,75.6,65.9,29.49,WNW,283,0.0,0.0,72,0.00,,,0.00,40.00,VWS V14.01,2013-06-28 23:36:00,
2013-06-28 19:41:00,75.3,65.7,29.50,WNW,282,2.0,3.0,72,0.00,,,0.00,30.00,VWS V14.01,2013-06-28 23:41:00,
2013-06-28 19:47:00,75.0,65.4,29.50,West,280,0.0,0.0,72,0.00,,,0.00,33.00,VWS V14.01,2013-06-28 23:47:00,
2013-06-28 19:52:00,74.8,64.8,29.50,West,280,0.0,0.0,71,0.00,,,0.00,30.00,VWS V14.01,2013-06-28 23:52:00,
2013-06-28 19:57:00,74.6,65.0,29.50,West,280,0.0,0.0,72,0.00,,,0.00,25.00,VWS V14.01,2013-06-28 23:57:00,
2013-06-28 20:02:00,74.5,64.9,29.51,West,280,0.0,1.0,72,0.00,,,0.00,18.00,VWS V14.01,2013-06-29 00:02:00,
2013-06-28 20:07:00,74.3,65.1,29.51,West,280,0.0,0.0,73,0.00,,,0.00,14.00,VWS V14.01,2013-06-29 00:07:00,
2013-06-28 20:12:00,74.2,65.0,29.50,West,280,0.0,0.0,73,0.00,,,0.00,12.00,VWS V14.01,2013-06-29 00:12:00,
2013-06-28 20:17:00,74.0,64.8,29.50,West,280,0.0,0.0,73,0.00,,,0.00,9.00,VWS V14.01,2013-06-29 00:17:00,
2013-06-28 20:22:00,73.7,64.5,29.50,West,280,0.0,1.0,73,0.00,,,0.00,9.00,VWS V14.01,2013-06-29 00:22:00,
2013-06-28 20:27:00,73.5,64.3,29.50,West,280,0.0,0.0,73,0.00,,,0.00,7.00,VWS V14.01,2013-06-29 00:27:00,
2013-06-28 20:32:00,73.3,64.5,29.50,West,280,0.0,0.0,74,0.00,,,0.00,5.00,VWS V14.01,2013-06-29 00:32:00,
2013-06-28 20:38:00,73.1,64.3,29.50,West,280,0.0,0.0,74,0.00,,,0.00,0.00,VWS V14.01,2013-06-29 00:38:00,
2013-06-28 20:43:00,73.0,64.6,29.51,West,280,0.0,0.0,75,0.00,,,0.00,0.00,VWS V14.01,2013-06-29 00:43:00,
2013-06-28 20:48:00,72.8,64.8,29.50,West,280,0.0,0.0,76,0.00,,,0.00,0.00,VWS V14.01,2013-06-29 00:48:00,
2013-06-28 20:53:00,72.6,65.0,29.50,West,280,0.0,0.0,77,0.00,,,0.00,0.00,VWS V14.01,2013-06-29 00:53:00,
2013-06-28 20:58:00,72.4,65.2,29.50,West,280,0.0,0.0,78,0.00,,,0.00,0.00,VWS V14.01,2013-06-29 00:58:00,
2013-06-28 21:03:00,72.1,64.9,29.51,West,280,1.0,1.0,78,0.00,,,0.00,0.00,VWS V14.01,2013-06-29 01:03:00,
2013-06-28 21:08:00,71.9,65.0,29.50,West,280,0.0,0.0,79,0.00,,,0.00,0.00,VWS V14.01,2013-06-29 01:08:00,
2013-06-28 21:13:00,71.8,64.9,29.50,West,280,0.0,0.0,79,0.00,,,0.00,0.00,VWS V14.01,2013-06-29 01:13:00,
2013-06-28 21:19:00,71.7,65.2,29.50,West,280,0.0,0.0,80,0.00,,,0.00,0.00,VWS V14.01,2013-06-29 01:19:00,
2013-06-28 21:24:00,71.7,65.6,29.50,West,280,0.0,0.0,81,0.00,,,0.00,0.00,VWS V14.01,2013-06-29 01:24:00,
2013-06-28 21:29:00,71.6,65.5,29.50,West,280,0.0,0.0,81,0.00,,,0.00,0.00,VWS V14.01,2013-06-29 01:29:00,
2013-06-28 21:34:00,71.5,65.7,29.50,West,280,0.0,0.0,82,0.00,,,0.00,0.00,VWS V14.01,2013-06-29 01:34:00,
2013-06-28 21:39:00,71.4,65.6,29.50,West,280,0.0,0.0,82,0.00,,,0.00,0.00,VWS V14.01,2013-06-29 01:39:00,
2013-06-28 21:44:00,71.4,66.0,29.51,West,280,0.0,0.0,83,0.00,,,0.00,0.00,VWS V14.01,2013-06-29 01:44:00,
2013-06-28 21:49:00,71.3,65.9,29.51,West,280,0.0,0.0,83,0.00,,,0.00,0.00,VWS V14.01,2013-06-29 01:49:00,
2013-06-28 21:54:00,71.3,65.9,29.51,West,280,0.0,0.0,83,0.00,,,0.00,0.00,VWS V14.01,2013-06-29 01:54:00,
2013-06-28 21:59:00,71.2,65.8,29.51,West,280,0.0,0.0,83,0.00,,,0.00,0.00,VWS V14.01,2013-06-29 01:59:00,
2013-06-28 22:04:00,71.1,65.7,29.51,West,280,0.0,0.0,83,0.00,,,0.00,0.00,VWS V14.01,2013-06-29 02:04:00,
2013-06-28 22:10:00,71.0,66.3,29.50,West,280,0.0,0.0,85,0.00,,,0.00,0.00,VWS V14.01,2013-06-29 02:10:00,
2013-06-28 22:15:00,70.9,66.2,29.50,West,280,0.0,0.0,85,0.00,,,0.00,0.00,VWS V14.01,2013-06-29 02:15:00,
2013-06-28 22:20:00,70.8,66.1,29.51,West,280,0.0,0.0,85,0.00,,,0.00,0.00,VWS V14.01,2013-06-29 02:20:00,
2013-06-28 22:25:00,70.7,66.0,29.51,West,280,0.0,0.0,85,0.00,,,0.00,0.00,VWS V14.01,2013-06-29 02:25:00,
2013-06-28 22:30:00,70.7,66.0,29.51,West,280,0.0,0.0,85,0.00,,,0.00,0.00,VWS V14.01,2013-06-29 02:30:00,
2013-06-28 22:35:00,70.6,66.2,29.51,West,280,0.0,0.0,86,0.00,,,0.00,0.00,VWS V14.01,2013-06-29 02:35:00,
2013-06-28 22:40:00,70.5,66.1,29.51,West,280,0.0,0.0,86,0.00,,,0.00,0.00,VWS V14.01,2013-06-29 02:40:00,
2013-06-28 22:45:00,70.4,66.0,29.51,West,280,0.0,0.0,86,0.00,,,0.00,0.00,VWS V14.01,2013-06-29 02:45:00,
2013-06-28 22:50:00,70.4,66.3,29.51,West,280,0.0,0.0,87,0.00,,,0.00,0.00,VWS V14.01,2013-06-29 02:50:00,
2013-06-28 22:55:00,70.3,66.2,29.52,West,279,0.0,1.0,87,0.00,,,0.00,0.00,VWS V14.01,2013-06-29 02:55:00,
2013-06-28 23:00:00,70.3,66.6,29.52,West,278,0.0,3.0,88,0.00,,,0.00,0.00,VWS V14.01,2013-06-29 03:00:00,
2013-06-28 23:05:00,70.2,66.2,29.52,West,278,0.0,0.0,87,0.00,,,0.00,0.00,VWS V14.01,2013-06-29 03:05:00,
2013-06-28 23:10:00,70.0,66.0,29.52,West,278,0.0,0.0,87,0.00,,,0.00,0.00,VWS V14.01,2013-06-29 03:10:00,
2013-06-28 23:15:00,69.9,65.9,29.52,West,278,0.0,0.0,87,0.00,,,0.00,0.00,VWS V14.01,2013-06-29 03:15:00,
2013-06-28 23:20:00,69.9,65.9,29.51,West,277,0.0,0.0,87,0.00,,,0.00,0.00,VWS V14.01,2013-06-29 03:20:00,
2013-06-28 23:25:00,69.8,65.8,29.51,West,277,0.0,0.0,87,0.00,,,0.00,0.00,VWS V14.01,2013-06-29 03:25:00,
2013-06-28 23:30:00,69.7,65.7,29.52,West,278,0.0,1.0,87,0.00,,,0.00,0.00,VWS V14.01,2013-06-29 03:30:00,
2013-06-28 23:35:00,69.6,65.6,29.52,West,278,0.0,0.0,87,0.00,,,0.00,0.00,VWS V14.01,2013-06-29 03:35:00,
2013-06-28 23:40:00,69.5,65.5,29.52,West,277,0.0,0.0,87,0.00,,,0.00,0.00,VWS V14.01,2013-06-29 03:40:00,
2013-06-28 23:45:00,69.5,65.5,29.51,West,278,0.0,0.0,87,0.00,,,0.00,0.00,VWS V14.01,2013-06-29 03:45:00,
2013-06-28 23:50:00,69.5,65.8,29.51,West,277,0.0,0.0,88,0.00,,,0.00,0.00,VWS V14.01,2013-06-29 03:50:00,
2013-06-28 23:56:00,69.4,65.4,29.51,West,277,0.0,0.0,87,0.00,,,0.00,0.00,VWS V14.01,2013-06-29 03:56:00,